[[{"header":{"parameterUnit":"m.s-1","parameterCategory":1,"la1":30.2991,"la2":30.254,"lo1":-89.0895,"lo2":-89.0444,"dy":0.0017,"dx":0.0017,"nx":28,"ny":28,"refTime":"2024-02-04T03:00:00:Z","depth":0,"parameterNumber":2,"parameterNumberName":"U-component_of_WINDS"},"data":[0,0,0,0,0,0,0,0,0,0,0,0,0,0,0,0,0,0,0,0,0,0,0,0,0,0,0,0,0,0,0,0,0,0,0,0,0,0,0,0,0,0,0,0,0,0,0,0,0,0,0,0,0,0,0,0,0,0,1.8182,1.8181,0,1.8104,1.8103,1.8102,1.8038,1.8037,1.8036,1.8036,1.7951,1.795,1.7948,0,0,0,0,0,0,0,0,0,0,0,0,0,1.8272,1.8271,1.8182,1.8181,1.818,1.8104,1.8103,1.8102,1.8038,1.8037,1.8036,1.8036,1.7952,1.795,1.7948,0,0,0,0,0,0,0,0,0,0,0,0,0,1.8218,1.8271,1.8183,1.8139,1.8135,1.8105,1.8103,1.8102,1.8038,1.8037,1.8036,1.8035,1.7952,1.795,1.7948,1.7953,0,0,1.794,1.7939,0,0,0,0,0,0,0,0,1.8221,1.8214,1.8147,1.8142,1.8137,1.808,1.8104,1.8052,1.8038,1.8075,1.8036,1.8035,1.7995,1.7989,1.7976,1.7949,1.7945,1.794,1.7938,1.7937,1.7937,0,0,0,0,0,0,0,1.8225,1.8217,1.8151,1.8146,1.814,1.8123,1.8114,1.8094,1.8041,1.8071,1.8067,1.8058,1.7992,1.7978,1.7973,1.7944,1.794,1.7938,1.7936,1.7935,1.7918,1.7918,0,0,0,0,0,0,1.8236,1.8221,1.8154,1.8149,1.8177,1.8122,1.8112,1.8099,1.8041,1.8031,1.8059,1.8056,1.7983,1.7976,1.797,1.7973,1.7937,1.7935,1.7934,1.7917,1.7918,1.7919,0,0,0,0,0,0,1.8238,1.823,1.8157,1.8184,1.8173,1.8121,1.8108,1.8098,1.8085,1.8032,1.8022,1.8056,1.7982,1.7974,1.7958,1.7969,1.7934,1.7932,1.7915,1.7917,1.7918,1.7978,0,0,0,0,0,0,1.8241,1.8232,1.8234,1.8184,1.8172,1.8147,1.8108,1.8097,1.8081,1.8076,1.8026,1.8017,1.7981,1.7962,1.7956,1.7965,1.793,1.7914,1.7916,1.7918,1.7975,1.7981,1.7987,0,0,0,0,0,1.8244,1.8252,1.8234,1.8226,1.8174,1.8148,1.8141,1.81,1.8083,1.8084,1.805,1.8018,1.7969,1.7961,1.7953,1.7962,1.7913,1.7916,1.7918,1.7972,1.798,1.7987,0,0,0,0,0,0,1.8302,1.8245,1.8224,1.8217,1.8188,1.8137,1.8137,1.811,1.8084,1.808,1.803,1.8019,1.8009,1.7984,1.7976,1.7964,1.7937,1.7938,1.7981,1.7988,1.7994,1.8,1.7928,0,0,0,0,0,1.8315,1.83,1.825,1.8248,1.8235,1.8189,1.8176,1.8148,1.8115,1.8102,1.8067,1.8036,1.8013,1.7999,1.7975,1.7971,1.7959,1.7973,1.7979,1.7985,1.7986,1.7982,1.7987,1.7926,1.7926,1.7926,0,0,1.8339,1.8306,1.8299,1.8259,1.8233,1.8218,1.8179,1.8164,1.8152,1.8099,1.8083,1.8057,1.8018,1.8009,1.8002,1.7987,1.8,1.7987,1.7992,1.799,1.7985,1.799,1.7996,1.7928,1.7927,1.7927,0,0,1.8376,1.835,1.8346,1.8322,1.8284,1.8254,1.8253,1.8207,1.8188,1.8171,1.8131,1.8116,1.8078,1.8052,1.8034,1.8064,1.8034,1.8058,1.8089,1.8086,1.809,1.8094,1.8105,1.8109,1.8059,1.8059,1.8059,0,1.841,1.8388,1.8347,1.8335,1.8319,1.8272,1.8268,1.8245,1.8202,1.8191,1.8175,1.8128,1.8098,1.8082,1.809,1.8077,1.8074,1.8062,1.8093,1.8097,1.81,1.8109,1.8113,1.8062,1.8062,1.8061,1.8061,0,1.8432,1.8417,1.8418,1.8379,1.8363,1.8354,1.8312,1.83,1.8273,1.8244,1.8228,1.8192,1.816,1.8155,1.8128,1.8135,1.8127,1.8103,1.8074,1.811,1.8118,1.8121,1.8067,1.8065,1.8065,1.8064,0,0,1.8501,1.8442,1.8443,1.8425,1.8381,1.8368,1.8358,1.8329,1.832,1.8291,1.8281,1.8251,1.823,1.8209,1.8179,1.8177,1.8203,1.8153,1.8151,1.8163,1.8209,1.8227,1.8231,1.8183,1.8184,1.8184,1.8212,0,1.8531,1.8512,1.8476,1.8467,1.8453,1.841,1.8401,1.8372,1.8346,1.8328,1.8298,1.8278,1.825,1.8238,1.8234,1.8201,1.8211,1.8198,1.8172,1.8172,1.8183,1.8235,1.8254,1.8282,1.8215,1.8215,1.8215,0,1.8563,1.8539,1.853,1.8489,1.8481,1.8474,1.8445,1.843,1.8396,1.8377,1.8356,1.8324,1.831,1.8285,1.8265,1.8257,1.8245,1.8227,1.8227,1.8222,1.8195,1.8232,1.829,1.8294,1.822,1.822,1.8219,0,1.8614,1.858,1.8571,1.8557,1.8508,1.8504,1.8483,1.845,1.8435,1.8409,1.8399,1.8372,1.8357,1.8336,1.8297,1.8283,1.8281,1.8253,1.8264,1.8265,1.8265,1.8265,1.8321,1.8258,1.8258,1.8258,1.8258,0,1.8651,1.8647,1.8594,1.8588,1.8582,1.854,1.8535,1.851,1.8481,1.8469,1.8429,1.8418,1.8368,1.8351,1.8321,1.8309,1.8302,1.8286,1.8277,1.8289,1.8291,1.8279,1.8276,1.8259,1.8259,1.8258,1.8258,0,1.8707,1.8671,1.8658,1.8614,1.8603,1.8601,1.8562,1.8554,1.8526,1.8511,1.8505,1.846,1.8438,1.8398,1.8364,1.8344,1.8338,1.8324,1.835,1.8345,1.8358,1.8357,1.8408,1.8412,1.8347,1.8348,1.8348,0,1.8733,1.8729,1.8685,1.8675,1.8656,1.864,1.8626,1.8585,1.8571,1.8534,1.8531,1.8507,1.8485,1.8452,1.8415,1.8389,1.8374,1.8394,1.837,1.8382,1.8374,1.8375,1.8374,1.8399,1.84,1.84,1.8401,0,1.8781,1.8764,1.8746,1.8722,1.8706,1.8684,1.8661,1.8654,1.8608,1.8594,1.8572,1.8556,1.8523,1.8499,1.8468,1.8445,1.8415,1.8409,1.841,1.8422,1.8437,1.8429,1.8364,1.8408,1.8407,1.8407,1.8406,1.8406,1.8822,1.8818,1.8787,1.8768,1.8746,1.8725,1.8716,1.8688,1.8669,1.864,1.8617,1.8597,1.8565,1.8521,1.85,1.8483,1.8469,1.8471,1.8471,1.8472,1.8477,1.844,1.8477,1.8477,1.8477,1.8477,1.8476,0,1.8869,1.8848,1.8831,1.88,1.8785,1.8761,1.8733,1.8722,1.8706,1.8679,1.8659,1.8634,1.8611,1.8574,1.8548,1.8542,1.8527,1.8536,1.8536,1.8531,1.8491,1.8492,1.8548,1.8548,1.8548,1.8548,1.8548,1.8548,1.8892,1.8883,1.8862,1.8842,1.882,1.8801,1.8788,1.8768,1.8747,1.8722,1.8703,1.868,1.8649,1.862,1.8598,1.8587,1.8579,1.8592,1.8578,1.854,1.8534,1.8527,1.8529,1.8591,1.8591,1.8619,1.8619,1.862]},{"header":{"parameterUnit":"m.s-1","parameterCategory":1,"la1":30.2991,"la2":30.254,"lo1":-89.0895,"lo2":-89.0444,"dy":0.0017,"dx":0.0017,"nx":28,"ny":28,"refTime":"2024-02-04T03:00:00:Z","depth":0,"parameterNumber":3,"parameterNumberName":"V-component_of_WINDS"},"data":[0,0,0,0,0,0,0,0,0,0,0,0,0,0,0,0,0,0,0,0,0,0,0,0,0,0,0,0,0,0,0,0,0,0,0,0,0,0,0,0,0,0,0,0,0,0,0,0,0,0,0,0,0,0,0,0,0,0,-6.7281,-6.7282,0,-6.7371,-6.7372,-6.7373,-6.7288,-6.7285,-6.7281,-6.7278,-6.7365,-6.7371,-6.7376,0,0,0,0,0,0,0,0,0,0,0,0,0,-6.7032,-6.7037,-6.7281,-6.7282,-6.7284,-6.7371,-6.7373,-6.7374,-6.7289,-6.7285,-6.7281,-6.7277,-6.7364,-6.737,-6.7377,0,0,0,0,0,0,0,0,0,0,0,0,0,-6.7133,-6.7039,-6.7281,-6.7252,-6.725,-6.7371,-6.7373,-6.7374,-6.729,-6.7285,-6.7279,-6.7275,-6.7362,-6.7369,-6.7378,-6.753,0,0,-6.7403,-6.7406,0,0,0,0,0,0,0,0,-6.7127,-6.7142,-6.7255,-6.7254,-6.7252,-6.7313,-6.7317,-6.7426,-6.7291,-6.7275,-6.7278,-6.7272,-6.7352,-6.7361,-6.7389,-6.7534,-6.7538,-6.7403,-6.7408,-6.7412,-6.7414,0,0,0,0,0,0,0,-6.7121,-6.7138,-6.7317,-6.7257,-6.7255,-6.7233,-6.7242,-6.7337,-6.734,-6.7276,-6.727,-6.7282,-6.735,-6.7381,-6.739,-6.7539,-6.7403,-6.7411,-6.7416,-6.7419,-6.7817,-6.7822,0,0,0,0,0,0,-6.7117,-6.7133,-6.7314,-6.7319,-6.7176,-6.7242,-6.7251,-6.7299,-6.7339,-6.7341,-6.7286,-6.7277,-6.7369,-6.738,-6.7393,-6.7575,-6.7412,-6.742,-6.7424,-6.7811,-6.7818,-6.7824,0,0,0,0,0,0,-6.7112,-6.7134,-6.731,-6.7225,-6.7245,-6.7252,-6.7305,-6.7303,-6.7334,-6.7347,-6.7347,-6.7317,-6.7366,-6.7381,-6.7497,-6.7577,-6.7423,-6.7431,-6.7804,-6.7813,-6.7821,-6.7942,0,0,0,0,0,0,-6.7105,-6.7133,-6.7192,-6.7227,-6.725,-6.7415,-6.731,-6.7309,-6.7349,-6.7339,-6.7376,-6.7377,-6.7363,-6.7486,-6.7506,-6.7586,-6.7437,-6.7797,-6.7808,-6.7818,-6.793,-6.7953,-6.7972,0,0,0,0,0,-6.7097,-6.7221,-6.7195,-6.7218,-6.7324,-6.742,-6.7433,-6.7415,-6.7356,-6.7415,-6.7423,-6.7376,-6.7565,-6.7498,-6.752,-6.7604,-6.7792,-6.7805,-6.7817,-6.7921,-6.7949,-6.7972,0,0,0,0,0,0,-6.7193,-6.7225,-6.7197,-6.7336,-6.7376,-6.7405,-6.7479,-6.7445,-6.7501,-6.7489,-6.7463,-6.7472,-6.7596,-6.7611,-6.7536,-6.7754,-6.7669,-6.7686,-6.774,-6.7766,-6.7787,-6.7781,-6.7444,0,0,0,0,0,-6.723,-6.7307,-6.733,-6.745,-6.7472,-6.7473,-6.7513,-6.7497,-6.7536,-6.7552,-6.7569,-6.7609,-6.7677,-6.7722,-6.7786,-6.7932,-6.7939,-6.8001,-6.8021,-6.8039,-6.8054,-6.8134,-6.8162,-6.7865,-6.7865,-6.7865,0,0,-6.7308,-6.7335,-6.7384,-6.747,-6.7499,-6.7579,-6.7487,-6.7574,-6.7632,-6.7565,-6.7677,-6.7691,-6.7733,-6.7866,-6.7925,-6.7882,-6.8138,-6.8055,-6.8068,-6.8075,-6.815,-6.8178,-6.8203,-6.7874,-6.7872,-6.7871,0,0,-6.7491,-6.7519,-6.7623,-6.7655,-6.7701,-6.7701,-6.7726,-6.7762,-6.7769,-6.7881,-6.7833,-6.7901,-6.8019,-6.8052,-6.8084,-6.8281,-6.824,-6.8302,-6.8412,-6.849,-6.8514,-6.8534,-6.8606,-6.8631,-6.8318,-6.8318,-6.8318,0,-6.7581,-6.77,-6.768,-6.7772,-6.7811,-6.7757,-6.7862,-6.7893,-6.7957,-6.7985,-6.7937,-6.8086,-6.811,-6.825,-6.8299,-6.8326,-6.8354,-6.8298,-6.8512,-6.8532,-6.8551,-6.8619,-6.8646,-6.8325,-6.8325,-6.8324,-6.8323,0,-6.7809,-6.7892,-6.7971,-6.8037,-6.8085,-6.8183,-6.8178,-6.8228,-6.8208,-6.8213,-6.8328,-6.8356,-6.8425,-6.8456,-6.8436,-6.8595,-6.8567,-6.8516,-6.8429,-6.8587,-6.8651,-6.8676,-6.8336,-6.8333,-6.8331,-6.8329,0,0,-6.8053,-6.811,-6.8139,-6.8169,-6.8217,-6.8281,-6.8376,-6.8446,-6.849,-6.8536,-6.8616,-6.8718,-6.8672,-6.8709,-6.8691,-6.876,-6.8916,-6.8701,-6.8701,-6.8741,-6.9094,-6.9133,-6.9163,-6.889,-6.8894,-6.8898,-6.9091,0,-6.8239,-6.8407,-6.8393,-6.8552,-6.8629,-6.8579,-6.8662,-6.87,-6.8708,-6.8773,-6.8779,-6.8853,-6.8786,-6.8808,-6.8874,-6.8884,-6.8987,-6.8869,-6.8963,-6.8966,-6.8955,-6.9196,-6.9237,-6.9417,-6.9115,-6.9119,-6.9122,0,-6.8477,-6.8535,-6.8702,-6.8741,-6.8772,-6.8848,-6.8911,-6.8975,-6.9017,-6.9017,-6.906,-6.9031,-6.9127,-6.9039,-6.917,-6.909,-6.9127,-6.9138,-6.9145,-6.9153,-6.9054,-6.9211,-6.9474,-6.9501,-6.9161,-6.9158,-6.9155,0,-6.864,-6.8759,-6.8875,-6.8902,-6.895,-6.9004,-6.9026,-6.9064,-6.9107,-6.9162,-6.919,-6.9255,-6.929,-6.9341,-6.933,-6.9267,-6.9465,-6.9375,-6.9468,-6.9468,-6.9512,-6.9509,-6.9785,-6.9535,-6.9535,-6.9534,-6.9533,0,-6.8848,-6.8953,-6.8949,-6.9021,-6.9136,-6.9119,-6.9234,-6.9249,-6.9283,-6.9356,-6.9316,-6.9385,-6.9367,-6.9435,-6.9427,-6.9538,-6.9554,-6.9556,-6.9553,-6.9561,-6.9561,-6.9585,-6.9572,-6.9541,-6.954,-6.9538,-6.9537,0,-6.905,-6.9052,-6.9175,-6.9211,-6.9223,-6.9307,-6.9337,-6.9404,-6.9408,-6.9501,-6.9522,-6.9529,-6.9607,-6.9602,-6.9689,-6.9684,-6.9821,-6.9803,-6.9808,-6.9804,-6.9898,-6.9889,-7.0199,-7.0239,-6.9963,-6.9965,-6.9967,0,-6.9183,-6.9263,-6.9309,-6.9356,-6.9382,-6.9458,-6.9503,-6.949,-6.9538,-6.9593,-6.9654,-6.9729,-6.9788,-6.9916,-6.9927,-6.9994,-6.9978,-7.0082,-6.9987,-6.9993,-6.998,-6.9976,-6.9985,-7.01,-7.0103,-7.0106,-7.0108,0,-6.942,-6.9418,-6.9485,-6.9554,-6.961,-6.9663,-6.9711,-6.9751,-6.9742,-6.9799,-6.988,-6.9926,-7.0017,-7.0092,-7.0157,-7.0177,-7.0142,-7.0138,-7.0163,-7.0171,-7.0172,-7.0174,-6.986,-7.0131,-7.0128,-7.0127,-7.0125,-7.0124,-6.9592,-6.9661,-6.9705,-6.9782,-6.9818,-6.9865,-6.993,-6.9945,-7.0012,-7.0087,-7.0074,-7.0165,-7.0206,-7.029,-7.0317,-7.0387,-7.035,-7.0386,-7.0395,-7.0404,-7.0416,-7.0161,-7.0398,-7.0398,-7.0397,-7.0397,-7.0396,0,-6.9828,-6.9854,-6.9925,-6.9996,-7.0057,-7.002,-7.0072,-7.0125,-7.0206,-7.0249,-7.0309,-7.0403,-7.0476,-7.0494,-7.0565,-7.0617,-7.0603,-7.0636,-7.0632,-7.0638,-7.0444,-7.0416,-7.0647,-7.0647,-7.0647,-7.0647,-7.0647,-7.0647,-6.9958,-7.0074,-7.0077,-7.021,-7.0235,-7.0326,-7.0359,-7.0402,-7.0436,-7.0543,-7.0605,-7.0618,-7.0651,-7.0723,-7.0788,-7.0792,-7.082,-7.086,-7.0857,-7.0676,-7.0651,-7.0627,-7.0601,-7.0866,-7.0867,-7.1045,-7.1047,-7.1048]}]]